Wind_Speed
7 6 5 3 3 3 2 2 2 2 1 2 3 4 5 7 8 9 11 12 13 14 14 15 16 16 16 17 17 18 18 18 18 18 19 19 19 19 19 20 20 21
7 6 5 4 3 3 3 3 2 1 1 1 3 4 6 7 8 10 11 13 14 15 16 16 17 18 19 19 20 20 21 21 22 22 22 22 22 22 22 22 22 22
8 7 6 5 5 5 4 4 3 2 2 2 3 4 6 7 9 10 12 13 14 15 16 17 18 19 20 21 21 22 23 24 24 25 25 25 25 26 26 26 26 26
9 8 8 7 6 6 5 4 3 3 3 4 4 6 7 8 10 11 12 13 14 15 17 17 18 19 19 20 21 21 22 22 23 23 23 24 24 24 24 25 26 26
10 9 9 8 6 6 5 5 5 4 5 5 6 7 8 9 10 11 12 13 14 16 17 17 18 18 19 19 19 20 20 20 21 21 21 22 22 23 24 24 25 26
12 10 9 8 7 6 6 6 6 6 6 6 6 7 8 9 10 12 13 14 15 16 17 18 18 19 19 19 19 19 19 19 20 20 21 22 22 23 24 25 26 27
12 10 9 8 8 7 7 7 7 6 6 6 6 7 8 10 11 13 14 16 17 18 19 19 20 20 20 20 20 20 20 20 21 21 22 23 24 26 26 27 28 29
12 11 10 9 9 8 8 8 8 7 6 6 7 8 10 12 13 15 16 18 19 20 20 21 21 22 22 22 22 22 22 22 23 23 24 26 27 28 29 30 30 31
13 12 11 10 10 10 9 8 8 7 7 7 9 10 12 14 16 17 18 19 20 21 21 22 22 22 22 22 23 23 24 24 25 26 27 29 30 30 31 31 32 32
15 13 12 12 11 10 10 9 8 7 8 9 11 12 14 16 17 19 19 20 21 22 22 22 22 22 22 23 23 24 25 26 27 28 29 30 31 31 32 32 33 33
16 14 14 13 12 11 10 9 8 8 9 11 12 14 16 17 19 20 21 22 22 23 23 22 22 23 23 24 24 25 26 27 28 29 30 31 32 32 33 33 33 34
17 16 15 14 13 12 11 10 9 9 10 12 13 15 17 18 20 21 22 23 24 24 24 23 23 23 24 25 25 26 27 28 29 30 31 31 32 32 33 33 33 34
19 17 16 15 14 13 11 10 9 10 11 12 14 16 18 19 21 23 24 25 25 25 24 24 24 24 25 25 26 27 27 28 29 30 31 32 32 32 33 33 33 34
20 18 17 16 14 13 11 10 10 11 12 13 15 16 18 20 22 24 25 26 26 25 24 24 24 25 25 26 26 27 28 29 30 31 31 32 32 32 32 33 33 34
21 19 18 16 14 13 11 10 11 11 12 14 15 17 19 21 23 25 26 26 26 25 24 24 24 25 26 26 27 27 28 29 30 30 31 31 31 32 32 33 34 35
22 20 19 17 15 13 12 12 12 13 13 14 16 18 20 22 24 26 26 27 26 26 25 24 25 25 26 26 26 27 28 28 29 30 30 31 31 32 33 33 34 35
24 22 19 18 16 15 14 13 14 14 14 16 17 18 20 22 24 26 27 27 27 26 25 25 25 26 26 26 26 26 27 28 29 30 30 31 31 32 34 34 35 36
25 23 21 19 17 16 16 15 16 16 16 17 18 19 21 23 25 26 27 28 28 27 26 25 26 26 26 26 25 25 26 27 29 30 30 31 32 33 34 35 36 37
27 24 23 21 19 18 18 18 18 18 18 19 19 20 22 23 25 27 28 28 29 28 27 26 26 26 25 25 25 25 26 27 29 30 30 31 32 33 33 34 35 36
28 26 24 22 21 20 20 21 20 20 20 20 20 21 22 24 26 27 28 29 29 28 27 27 27 26 26 25 25 25 26 27 28 29 30 31 32 33 33 34 35 35
28 27 25 23 22 22 23 23 22 21 21 21 21 22 23 25 26 28 29 30 30 29 28 27 27 26 26 25 25 25 26 27 28 30 31 32 33 33 34 35 35 35
28 27 25 24 24 24 24 24 23 22 22 22 22 23 24 25 27 29 30 31 30 29 29 28 27 27 26 25 25 25 27 28 29 30 32 33 33 34 34 35 35 34
27 26 25 25 24 25 24 24 23 23 23 23 23 24 25 26 28 30 31 31 30 29 29 28 28 27 26 25 25 26 27 28 29 31 32 33 34 34 34 34 34 34
26 25 25 24 24 25 24 24 24 24 24 24 24 25 25 27 29 30 31 31 30 29 29 29 28 26 25 25 25 26 27 28 30 31 32 33 33 33 34 34 33 33
24 24 24 24 24 24 24 25 25 25 25 25 25 26 27 28 29 31 31 31 29 28 28 29 28 26 25 25 25 26 27 28 29 31 31 32 31 32 32 32 32 33
23 23 23 23 24 24 25 26 26 26 26 26 26 27 28 28 30 31 31 31 29 28 28 28 28 26 25 25 25 26 26 27 29 30 30 30 31 31 32 32 32 33
Wind_Direction
134 137 144 140 142 146 140 134 122 106 66 40 16 4 360 354 352 349 346 344 343 342 341 340 340 338 337 336 334 333 331 330 330 328 327 326 325 324 322 321 320 319
155 160 168 177 186 184 179 183 184 209 279 335 343 347 347 343 341 337 334 333 331 330 329 328 328 327 327 327 326 326 325 324 324 323 323 322 322 321 320 318 317 316
175 181 191 199 203 204 204 205 213 234 263 303 319 325 325 322 320 319 318 318 318 318 319 318 319 319 319 319 319 319 319 319 319 319 318 318 317 317 316 316 315 314
190 196 202 205 206 208 211 216 230 252 270 285 295 300 304 305 307 309 311 313 315 316 317 317 318 318 317 317 316 314 314 313 312 312 311 311 311 311 311 311 311 311
199 202 203 205 208 214 221 229 242 255 265 275 283 291 298 302 308 312 315 318 320 321 321 321 320 319 317 315 313 311 310 308 308 308 308 309 309 309 310 310 310 310
202 203 203 208 216 222 229 234 243 252 260 271 282 291 300 307 313 318 320 323 324 323 323 321 319 317 315 313 311 310 309 309 309 309 309 311 311 312 312 312 312 312
204 205 207 215 221 222 228 235 242 252 259 270 285 297 306 313 317 321 323 323 323 322 320 319 317 316 314 313 312 312 312 312 313 314 314 315 315 316 316 316 315 315
207 210 212 216 219 221 228 236 242 251 262 278 294 305 313 318 321 323 324 323 322 321 319 318 316 316 314 314 314 315 316 316 317 318 319 319 320 320 320 319 318 318
211 213 215 216 218 222 229 235 242 254 270 288 303 313 319 323 324 324 324 323 322 320 319 318 316 315 314 314 316 317 318 319 320 321 322 323 323 322 322 321 321 320
214 215 216 216 219 224 229 235 246 264 282 299 313 320 324 325 325 325 324 322 322 321 320 319 316 315 315 315 316 317 319 320 321 322 323 323 323 323 322 322 321 321
216 216 216 219 222 225 231 241 258 277 295 309 319 323 325 326 326 325 324 323 323 322 321 318 316 315 315 316 317 317 318 319 321 322 322 322 322 322 322 322 321 321
218 218 219 222 225 229 239 253 271 289 302 313 320 322 324 325 325 325 325 324 323 322 320 317 315 314 314 315 317 317 318 319 320 321 321 321 321 321 321 320 320 320
220 222 224 227 230 237 249 263 279 294 304 312 318 321 322 323 324 325 325 325 323 321 319 315 314 313 314 315 316 316 317 318 319 320 320 320 320 320 320 319 319 319
223 226 228 232 237 245 257 270 283 294 303 310 315 317 318 320 323 324 325 324 323 320 317 314 312 313 313 314 315 315 316 317 318 319 319 319 319 319 319 319 319 319
226 229 233 238 244 252 262 273 284 293 300 305 310 313 314 317 320 323 324 322 321 318 315 313 312 312 313 314 314 315 315 317 318 318 318 318 318 318 318 319 319 319
230 232 238 244 248 255 264 274 283 289 294 299 305 308 309 313 317 321 322 320 319 317 314 313 312 312 313 313 314 314 315 317 317 317 318 318 318 319 318 319 320 320
233 236 242 247 251 257 265 274 282 284 288 294 298 301 304 309 315 319 320 319 318 316 313 312 312 311 312 312 313 314 315 316 317 317 318 319 319 319 319 320 321 321
237 240 246 250 254 260 267 275 280 279 282 288 291 295 301 308 314 317 319 318 316 314 312 311 311 311 311 311 312 314 315 315 317 318 318 319 319 320 320 321 320 321
239 243 248 253 258 265 271 275 275 274 276 281 286 292 300 308 314 316 317 316 315 313 311 310 310 310 310 310 311 313 314 316 317 317 318 318 319 319 320 320 320 321
241 245 250 255 261 267 272 273 271 269 272 277 283 291 300 308 313 315 315 314 312 311 309 309 309 309 308 309 310 313 315 315 316 316 317 317 317 318 319 320 321 322
242 246 251 257 263 267 270 268 266 266 269 274 281 291 300 307 311 313 313 311 310 309 308 308 308 307 307 308 310 313 314 314 314 315 315 316 317 318 319 320 321 322
243 248 253 259 263 265 265 264 262 263 267 273 281 290 300 306 310 312 311 309 308 307 306 306 306 306 306 308 310 312 312 312 313 313 314 315 317 318 319 319 320 321
244 249 255 259 261 261 261 260 260 262 266 273 281 290 299 305 309 311 309 307 306 305 304 305 305 304 305 307 309 309 309 310 311 312 314 315 316 317 318 318 319 320
246 251 255 257 257 258 259 259 260 262 266 273 281 290 298 304 307 308 307 305 304 303 303 303 303 303 304 305 306 307 307 309 310 311 312 314 316 317 316 317 317 319
246 249 252 254 257 258 258 259 260 262 266 273 281 289 296 301 304 305 305 304 302 301 301 302 301 302 302 303 304 304 305 307 308 310 312 313 314 314 314 315 316 318
245 249 253 256 258 259 259 260 261 262 267 273 281 288 293 297 301 302 303 302 300 299 300 300 299 299 300 302 302 302 304 306 307 309 311 312 312 313 314 315 317 320
Height
1566 1567 1567 1568 1568 1568 1568 1568 1567 1567 1567 1566 1566 1566 1565 1565 1565 1564 1564 1564 1563 1563 1562 1562 1561 1560 1560 1559 1558 1557 1557 1556 1555 1554 1553 1552 1551 1550 1549 1548 1547 1546
1566 1566 1567 1567 1567 1567 1567 1567 1567 1566 1566 1566 1565 1565 1565 1564 1564 1564 1563 1563 1563 1562 1562 1561 1560 1560 1559 1558 1557 1556 1555 1554 1553 1552 1551 1550 1549 1548 1547 1546 1545 1544
1565 1566 1566 1566 1567 1567 1567 1566 1566 1566 1565 1565 1565 1564 1564 1564 1563 1563 1563 1563 1562 1562 1561 1560 1560 1559 1558 1557 1556 1555 1554 1553 1551 1550 1549 1548 1547 1546 1544 1543 1542 1541
1564 1564 1565 1565 1565 1566 1566 1565 1565 1565 1564 1564 1564 1564 1564 1563 1563 1563 1562 1562 1561 1561 1560 1559 1558 1557 1556 1555 1554 1553 1552 1551 1550 1549 1548 1547 1546 1544 1543 1542 1541 1540
1562 1563 1563 1563 1564 1564 1564 1564 1564 1564 1563 1563 1563 1563 1563 1563 1562 1562 1561 1561 1560 1560 1559 1558 1557 1556 1555 1554 1553 1552 1551 1550 1549 1548 1547 1545 1544 1543 1542 1540 1539 1538
1560 1561 1561 1562 1562 1563 1563 1563 1563 1562 1563 1563 1562 1562 1562 1562 1561 1561 1560 1559 1559 1558 1557 1556 1555 1554 1553 1552 1551 1550 1549 1548 1547 1546 1545 1543 1542 1541 1540 1538 1537 1535
1559 1559 1559 1560 1560 1561 1561 1561 1561 1561 1562 1561 1561 1561 1561 1560 1560 1559 1558 1557 1557 1556 1555 1554 1553 1552 1551 1549 1549 1547 1546 1546 1544 1543 1542 1541 1540 1538 1537 1535 1534 1532
1557 1557 1558 1558 1559 1559 1560 1560 1560 1560 1560 1560 1560 1559 1559 1558 1557 1557 1556 1555 1554 1553 1552 1551 1550 1549 1548 1547 1546 1544 1544 1543 1541 1540 1539 1538 1536 1535 1533 1532 1530 1528
1555 1556 1556 1557 1557 1558 1558 1558 1558 1558 1558 1558 1558 1557 1556 1555 1555 1554 1554 1553 1552 1551 1550 1549 1548 1547 1545 1544 1543 1542 1540 1539 1538 1537 1535 1534 1533 1531 1530 1528 1526 1525
1554 1554 1555 1555 1556 1556 1556 1557 1556 1556 1556 1555 1555 1554 1553 1553 1553 1552 1552 1551 1550 1549 1548 1547 1545 1544 1543 1541 1540 1539 1538 1536 1535 1534 1533 1531 1530 1528 1526 1524 1523 1521
1552 1553 1553 1554 1554 1554 1555 1555 1554 1554 1553 1553 1552 1552 1551 1551 1551 1550 1550 1549 1548 1547 1546 1544 1543 1541 1540 1539 1538 1536 1535 1534 1532 1531 1530 1528 1527 1525 1523 1521 1519 1518
1550 1551 1551 1552 1552 1553 1553 1553 1552 1551 1551 1550 1550 1549 1549 1549 1549 1548 1547 1547 1546 1544 1543 1542 1540 1539 1537 1536 1535 1534 1532 1531 1530 1528 1527 1525 1524 1522 1520 1518 1516 1515
1548 1549 1549 1550 1550 1550 1550 1550 1549 1549 1548 1548 1548 1547 1547 1547 1547 1546 1545 1544 1543 1542 1541 1539 1537 1536 1535 1534 1532 1531 1530 1528 1527 1525 1524 1522 1521 1519 1517 1515 1513 1512
1546 1547 1547 1548 1548 1548 1548 1548 1547 1547 1546 1546 1546 1545 1545 1545 1544 1544 1543 1542 1541 1539 1538 1536 1535 1533 1532 1531 1530 1528 1527 1525 1524 1522 1521 1519 1518 1516 1514 1512 1510 1508
1544 1545 1545 1545 1545 1545 1545 1545 1545 1544 1544 1544 1544 1543 1543 1543 1542 1541 1540 1539 1538 1537 1535 1534 1532 1531 1529 1528 1527 1525 1524 1522 1521 1519 1517 1516 1514 1513 1511 1509 1507 1504
1541 1542 1542 1543 1543 1543 1543 1542 1542 1542 1541 1541 1541 1541 1541 1540 1540 1539 1538 1537 1535 1533 1532 1531 1529 1528 1526 1525 1524 1522 1521 1519 1517 1516 1514 1512 1511 1509 1507 1505 1503 1501
1538 1539 1540 1540 1540 1540 1540 1540 1540 1539 1539 1539 1539 1539 1538 1538 1537 1536 1535 1533 1532 1530 1529 1527 1526 1525 1523 1522 1521 1519 1517 1516 1514 1512 1510 1509 1507 1505 1503 1501 1499 1497
1535 1536 1536 1537 1537 1537 1537 1537 1537 1537 1537 1537 1536 1536 1536 1535 1534 1533 1532 1530 1529 1527 1526 1524 1523 1522 1520 1519 1518 1516 1514 1512 1511 1509 1507 1505 1503 1501 1499 1497 1495 1493
1532 1533 1533 1534 1534 1534 1534 1534 1534 1534 1534 1534 1534 1533 1533 1532 1531 1530 1528 1527 1525 1524 1523 1521 1520 1518 1517 1516 1514 1513 1511 1509 1507 1505 1503 1502 1500 1498 1496 1494 1491 1489
1529 1529 1530 1531 1531 1531 1531 1531 1531 1531 1531 1531 1531 1530 1530 1529 1528 1526 1525 1524 1522 1521 1519 1518 1517 1515 1514 1512 1511 1509 1507 1505 1504 1502 1500 1498 1496 1494 1492 1490 1488 1485
1525 1526 1527 1527 1528 1528 1528 1528 1529 1528 1528 1528 1528 1527 1526 1525 1524 1523 1522 1521 1519 1517 1516 1515 1513 1512 1510 1509 1507 1505 1503 1502 1500 1499 1497 1495 1493 1491 1488 1486 1484 1482
1522 1523 1524 1524 1524 1525 1525 1525 1525 1525 1525 1525 1524 1524 1523 1522 1521 1520 1519 1517 1516 1514 1513 1511 1510 1508 1507 1505 1503 1502 1500 1498 1497 1495 1493 1491 1489 1487 1485 1482 1480 1478
1519 1520 1520 1520 1521 1521 1521 1522 1522 1522 1521 1521 1521 1520 1519 1518 1518 1516 1515 1514 1512 1511 1509 1508 1506 1505 1503 1502 1500 1498 1496 1495 1493 1491 1489 1487 1485 1483 1481 1478 1476 1474
1516 1516 1517 1517 1517 1518 1518 1518 1518 1518 1518 1518 1517 1516 1516 1515 1514 1513 1512 1510 1509 1507 1506 1504 1503 1502 1500 1499 1497 1495 1493 1491 1490 1488 1486 1484 1481 1479 1477 1475 1473 1471
1512 1513 1513 1513 1514 1514 1514 1514 1514 1514 1514 1514 1514 1513 1512 1512 1511 1509 1508 1506 1505 1504 1502 1500 1499 1498 1497 1495 1494 1492 1490 1488 1486 1484 1482 1480 1478 1475 1473 1471 1469 1467
1508 1509 1509 1510 1510 1510 1510 1510 1510 1510 1510 1510 1510 1509 1508 1508 1507 1506 1504 1503 1502 1500 1499 1497 1496 1494 1493 1492 1490 1488 1486 1485 1483 1480 1478 1476 1474 1472 1469 1467 1466 1463